Weather History for Fort Myers, FL

Change the Weather History Date:

Thursday, January 3, 2013

  Actual Average Record
Temperature  
Mean Temperature 72 °F 64 °F  
Max Temperature 82 °F 75 °F 87 °F (1982)
Min Temperature 61 °F 54 °F 32 °F (2008)
Degree Days  
Heating Degree Days 0 4  
Month to date heating degree days 0 12  
Since 1 July heating degree days 58 105  
Cooling Degree Days 7 3  
Month to date cooling degree days 15 9  
Year to date cooling degree days 15 9  
Growing Degree Days 21 (Base 50)    
Moisture  
Dew Point 64 °F    
Average Humidity 84    
Maximum Humidity 100    
Minimum Humidity 49    
Precipitation  
Precipitation 0.00 in 0.06 in 1.55 in (1996)
Month to date precipitation 0.00 0.18  
Year to date precipitation 0.00 0.18  
Sea Level Pressure  
Sea Level Pressure 30.08 in    
Wind  
Wind Speed 4 mph (South)    
Max Wind Speed 17 mph    
Max Gust Speed 21 mph    
Visibility 7 miles    
Events Fog    
T = Trace of Precipitation, MM = Missing Value Source: NWS Daily Summary

Daily Weather History Graph

Daily Weather History Graph

Search for Another Location

Airport:

Trip Planner

Search our weather history database for the weather conditions in past years. The results will help you decide how hot, cold, wet, or windy it might be!

Date:

Astronomy

Jan. 03, 2013 Rise Set
Actual Time 7:16 AM EST 5:47 PM EST
Civil Twilight 6:51 AM EST 6:13 PM EST
Nautical Twilight 6:22 AM EST 6:42 PM EST
Astronomical Twilight 5:54 AM EST 7:10 PM EST
Moon 11:42 PM EST (1/3) 11:03 AM EST (1/3)
Length of Visible Light 11h 22m
Length of Day
10h 31m
Waning Gibbous, 65% of the Moon is Illuminated
Jan 3
Waning Gibbous
Jan 4
Last Quarter
Jan 11
New
Jan 18
First Quarter
Jan 26
Full

Hourly Weather History & Observations

Time (EST) Temp. Heat Index Dew Point Humidity Pressure Visibility Wind Dir Wind Speed Gust Speed Precip Events Conditions
12:53 AM 66.0 °F - 64.9 °F 96% 30.07 in 0.2 mi Calm Calm - N/A Fog Fog
1:53 AM 64.9 °F - 64.9 °F 100% 30.07 in 0.2 mi Calm Calm - N/A Fog Fog
2:53 AM 64.0 °F - 63.0 °F 96% 30.06 in 0.2 mi Calm Calm - N/A Fog Fog
3:53 AM 63.0 °F - 63.0 °F 100% 30.06 in 0.2 mi SE 4.6 mph - N/A Fog Fog
4:53 AM 61.0 °F - 61.0 °F 100% 30.06 in 0.2 mi East 3.5 mph - N/A Fog Fog
5:53 AM 61.0 °F - 61.0 °F 100% 30.06 in 0.2 mi Calm Calm - N/A Fog Fog
6:53 AM 61.0 °F - 61.0 °F 100% 30.08 in 0.2 mi Calm Calm - N/A Fog Fog
7:53 AM 61.0 °F - 61.0 °F 100% 30.10 in 0.2 mi Calm Calm - N/A Fog Fog
8:30 AM 62.6 °F - 62.6 °F 100% 30.10 in 1.0 mi Calm Calm - N/A   Mist
8:48 AM 64.4 °F - 64.4 °F 100% 30.10 in 9.0 mi Calm Calm - N/A   Partly Cloudy
8:53 AM 64.0 °F - 64.0 °F 100% 30.11 in 9.0 mi Calm Calm - N/A   Clear
9:53 AM 71.1 °F - 66.0 °F 84% 30.12 in 10.0 mi ESE 3.5 mph - N/A   Clear
10:53 AM 75.9 °F - 66.9 °F 74% 30.11 in 10.0 mi SSE 8.1 mph - N/A   Clear
11:20 AM 77.0 °F - 66.2 °F 69% 30.09 in 10.0 mi SSE 8.1 mph - N/A   Clear
11:53 AM 78.1 °F - 66.9 °F 68% 30.08 in 10.0 mi Variable 6.9 mph - N/A   Scattered Clouds
12:53 PM 81.0 °F 82.5 °F 64.0 °F 56% 30.04 in 10.0 mi South 9.2 mph - N/A   Partly Cloudy
1:53 PM 81.0 °F 81.3 °F 59.0 °F 47% 30.03 in 10.0 mi SSW 11.5 mph 20.7 mph N/A   Clear
2:53 PM 80.1 °F 81.1 °F 61.0 °F 52% 30.04 in 10.0 mi SW 12.7 mph - N/A   Clear
3:53 PM 80.1 °F 81.1 °F 61.0 °F 52% 30.04 in 10.0 mi SSW 9.2 mph - N/A   Clear
4:53 PM 77.0 °F - 66.0 °F 69% 30.06 in 10.0 mi SW 9.2 mph - N/A   Clear
5:53 PM 73.9 °F - 66.9 °F 79% 30.07 in 10.0 mi South 5.8 mph - N/A   Clear
6:53 PM 73.9 °F - 66.9 °F 79% 30.10 in 10.0 mi SSW 3.5 mph - N/A   Overcast
7:53 PM 73.0 °F - 66.9 °F 81% 30.11 in 10.0 mi Calm Calm - N/A   Partly Cloudy
8:53 PM 72.0 °F - 66.9 °F 84% 30.11 in 10.0 mi SSE 3.5 mph - N/A   Partly Cloudy
9:53 PM 71.1 °F - 66.9 °F 87% 30.12 in 10.0 mi South 3.5 mph - N/A   Clear
10:53 PM 70.0 °F - 68.0 °F 93% 30.14 in 10.0 mi Calm Calm - N/A   Mostly Cloudy
11:53 PM 70.0 °F - 68.0 °F 93% 30.12 in 10.0 mi Calm Calm - N/A   Overcast